Regional Weather Roundup
Issued by NWS Cleveland, OH

Home | Current Version | Previous Version | Graphics & Text | Print | Product List | Glossary On
Versions: 1 2 3 4 5 6 7 8 9 10 11 12 13 14 15 16 17 18 19 20 21 22 23 24 25 26 27 28 29 30 31 32 33 34 35 36 37 38 39 40 41 42 43 44 45 46 47 48 49 50
000
ASUS41 KCLE 181400
RWRCLE
OHIO REGIONAL WEATHER ROUNDUP
NATIONAL WEATHER SERVICE WILMINGTON, OH
1000 AM EDT FRI APR 18 2014

NOTE: "FAIR" INDICATES FEW OR NO CLOUDS BELOW 12,000 FEET WITH NO
SIGNIFICANT WEATHER AND/OR OBSTRUCTIONS TO VISIBILITY.

OHZ001>008-015>018-024>027-034-035-043-044-181500-
   NORTHWEST OHIO

CITY           SKY/WX    TMP DP  RH WIND       PRES   REMARKS
DEFIANCE       CLOUDY    58  40  51 NE3       30.28F
FINDLAY        MOSUNNY   56  39  53 CALM      30.28S
TOLEDO EXPRESS PTSUNNY   55  40  56 E5        30.27F
TOLEDO METCALF CLOUDY    56  41  57 E5        30.29F
LIMA           MOSUNNY   58  39  49 N8        30.28F
$$

OHZ009>014-019>023-028>033-038-089-181500-
   NORTHEAST OHIO

CITY           SKY/WX    TMP DP  RH WIND       PRES   REMARKS
CLE-HOPKINS    CLOUDY    56  33  42 W9        30.31S
CLE-LAKEFRONT  CLOUDY    53  35  50 SW7       30.28R
CUY CO. ARPT   CLOUDY    55  32  41 SW14      30.29
LORAIN-ELYRIA  CLOUDY    55  35  47 W5        30.29F
ASHTABULA      CLOUDY    50  29  44 S10       30.30S
AKRON-CANTON   CLOUDY    52  30  43 SW6       30.30R
WOOSTER        NOT AVBL
MANSFIELD      CLOUDY    55  33  43 SW5       30.29S
YOUNGSTOWN     CLOUDY    51  28  41 S6        30.29F
$$

OHZ042-051>053-060>062-070>072-077>081-181500-
  SOUTHWEST OHIO

CITY           SKY/WX    TMP DP  RH WIND       PRES   REMARKS
CINC-COVINGTON PTSUNNY   59  42  53 CALM      30.30R
CINC-LUNKEN    PTSUNNY   48  43  82 CALM      30.32S
HAMILTON       PTSUNNY   57  43  59 CALM      30.31S
DAYTON         NOT AVBL
WRIGHT-PAT AFB PTSUNNY   52  42  67 CALM      30.30S
DAYTON GENERAL PTSUNNY   58  38  47 W3        30.29S
WILMINGTON     PTSUNNY   55  39  54 SW6       30.30S
$$

OHZ036-037-039>041-045>050-054>059-063>069-073>076-082>088-181500-
  CENTRAL AND SOUTHEAST OHIO

CITY           SKY/WX    TMP DP  RH WIND       PRES   REMARKS
COLUMBUS       PTSUNNY   56  29  35 CALM      30.29F
OSU AIRPORT    PTSUNNY   55  33  43 W3        30.29F
BOLTON FIELD   SUNNY     55  37  50 S5        30.29F
RICKENBACK AFB NOT AVBL
NEWARK         CLOUDY    51  37  58 CALM      30.29S
MARION         PTSUNNY   51  36  56 S5        30.29F
LANCASTER      CLOUDY    53  33  46 CALM      30.30S
ZANESVILLE     CLOUDY    51  30  44 S7        30.30F
NEW PHILLY     CLOUDY    50  29  44 SE3       30.31S
$$



USA.gov is the U.S. government's official web portal to all federal, state and local government web resources and services.